Back to catalog

TELSTAR 14R

AliveCommunicationsGEO
NORAD 37602·PAYLOAD·🇨🇦 Canada

Launched May 20, 2011 from Baikonur Cosmodrome

Loading…

TLE

FreshSource: Space-Track

Epoch: Sep 14, 2026, 22:24 UTC

1 37602U 11021A   26257.93352745 -.00000128  00000-0  00000-0 0  9995
2 37602   0.2410  84.8287 0006182 280.9243 334.4593  0.98986170 56728

Track TELSTAR 14R in real time with AllMySat

Download on the App Store